Location: ?????????
(55.6553°N, 38.9075°E)
Time: 06:07:22
(UTC+00:00)

ATLAS 3B R/B - Pass Details

Date: 18 October 2019
Orbit: 1029 x 1166 km, 63.8° (Epoch: 10 November)

Event Time Altitude Azimuth Distance (km) Brightness Sun altitude
Exits shadow 03:15:13 - 304° (NW) 3,363 4.8 -7.0°
Reaches altitude 10° 03:17:02 10° 295° (WNW) 2,848 4.3 -6.8°
Maximum altitude 03:21:53 22° 248° (WSW) 2,132 3.8 -6.1°
Drops below altitude 10° 03:26:47 10° 201° (SSW) 2,887 4.9 -5.4°
Sets 03:30:05 0° 187° (S) 3,861 5.7 -5.0°
